Location: ????????
(54.6123°N, 39.2099°E)
Time: 12:57:28
(UTC+00:00)

Meteor 1-13 Rocket - Visible Passes

Search period start: 14 February 2026 00:00
Search period end: 24 February 2026 00:00
Orbit: 830 x 910 km, 81.3° (Epoch: 13 February)

Date Brightness Start Highest point End Pass type
(mag) Time Alt. Az. Time Alt. Az. Time Alt. Az.
14 Feb 7.0 20:17:38 10° N 20:18:08 12° N 20:18:08 12° N visible
15 Feb 6.9 20:11:25 10° N 20:12:03 13° N 20:12:03 13° N visible
16 Feb 6.9 20:05:12 10° N 20:05:58 13° N 20:05:58 13° N visible
17 Feb 6.8 19:58:58 10° N 19:59:54 14° N 19:59:54 14° N visible
17 Feb 7.1 21:42:12 10° NNW 21:42:19 11° NNW 21:42:19 11° NNW visible
18 Feb 6.7 19:52:46 10° N 19:53:49 15° N 19:53:49 15° N visible
18 Feb 7.1 21:36:00 10° NNW 21:36:15 11° NNW 21:36:15 11° NNW visible
19 Feb 6.7 19:46:31 10° N 19:47:45 16° N 19:47:45 16° N visible
19 Feb 7.0 21:29:48 10° NNW 21:30:11 12° NNW 21:30:11 12° NNW visible
20 Feb 6.6 19:40:19 10° N 19:41:41 16° N 19:41:41 16° N visible
20 Feb 7.0 21:23:36 10° NNW 21:24:07 13° NNW 21:24:07 13° NNW visible
21 Feb 6.5 19:34:05 10° N 19:35:38 17° N 19:35:38 17° N visible
21 Feb 6.9 21:17:24 10° NNW 21:18:04 13° NNW 21:18:04 13° NNW visible
22 Feb 6.4 19:27:53 10° N 19:29:35 18° N 19:29:35 18° N visible
22 Feb 6.9 21:11:11 10° NNW 21:12:01 14° NNW 21:12:01 14° NNW visible
23 Feb 6.3 19:21:39 10° N 19:23:32 20° N 19:23:32 20° N visible
23 Feb 6.8 21:05:00 10° NNW 21:05:58 15° NNW 21:05:58 15° NNW visible
